Change the Weather History Date:

Thursday, October 18, 2012

  Actual Average Record
Temperature  
Mean Temperature 48 °F 49 °F  
Max Temperature 55 °F 62 °F 86 °F (1914)
Min Temperature 41 °F 35 °F 15 °F (1948)
Degree Days  
Heating Degree Days 17 16  
Month to date heating degree days 294 241  
Cooling Degree Days 0 0  
Month to date cooling degree days 0 2  
Year to date cooling degree days 1077 764  
Moisture  
Dew Point 23 °F    
Average Humidity 40    
Maximum Humidity 46    
Minimum Humidity 34    
Precipitation  
Precipitation 0.00 in 0.06 in 1.92 in (1904)
Sea Level Pressure  
Sea Level Pressure 29.75 in    
Wind  
Wind Speed 33 mph (NW)    
Max Wind Speed 53 mph    
Max Gust Speed 70 mph    
Visibility 8 miles    
Events Rain    
T = Trace of Precipitation, MM = Missing Value Source: NWS Daily Summary

Daily Weather History Graph

Daily Weather History Graph

Search for Another Location

Airport or City:

Trip Planner

Search our weather history database for the weather conditions in past years. The results will help you decide how hot, cold, wet, or windy it might be!

Date:

Astronomy

Oct. 18, 2012 Rise Set
Actual Time 7:54 AM CDT 6:52 PM CDT
Civil Twilight 7:26 AM CDT 7:20 PM CDT
Nautical Twilight 6:54 AM CDT 7:52 PM CDT
Astronomical Twilight 6:22 AM CDT 8:24 PM CDT
Moon 11:40 AM CDT (10/18) 9:25 PM CDT (10/18)
Length of Visible Light 11h 53m
Length of Day
10h 57m
Waxing Crescent, 14% of the Moon is Illuminated
Oct 18
Waxing Crescent
Oct 21
First Quarter
Oct 29
Full
Nov 6
Last Quarter
Nov 13
New

Hourly Weather History & Observations

Time (CDT) Temp. Windchill Dew Point Humidity Pressure Visibility Wind Dir Wind Speed Gust Speed Precip Events Conditions
12:53 AM 42.1 °F 33.9 °F 19.0 °F 40% 29.75 in 10.0 mi WNW 17.3 mph 24.2 mph N/A   Clear
1:53 AM 42.1 °F 33.9 °F 19.0 °F 40% 29.75 in 10.0 mi WNW 17.3 mph 26.5 mph N/A   Clear
2:53 AM 43.0 °F 34.0 °F 18.0 °F 37% 29.74 in 10.0 mi WNW 21.9 mph 34.5 mph N/A   Clear
3:53 AM 42.1 °F 32.3 °F 17.1 °F 37% 29.74 in 10.0 mi WNW 24.2 mph 34.5 mph N/A   Clear
4:53 AM 41.0 °F 31.1 °F 19.0 °F 41% 29.73 in 10.0 mi WNW 23.0 mph 29.9 mph N/A   Clear
5:53 AM 42.1 °F 31.0 °F 18.0 °F 38% 29.71 in 10.0 mi WNW 32.2 mph 42.6 mph N/A   Clear
6:53 AM 41.0 °F 30.0 °F 16.0 °F 36% 29.72 in 10.0 mi WNW 28.8 mph 39.1 mph N/A   Clear
7:53 AM 43.0 °F 32.2 °F 17.1 °F 35% 29.72 in 10.0 mi NW 32.2 mph 51.8 mph N/A   Clear
8:53 AM 44.1 °F 32.3 °F 19.0 °F 37% 29.71 in 8.0 mi NW 42.6 mph 56.4 mph N/A   Clear
9:53 AM 46.9 °F - 19.9 °F 34% 29.70 in 8.0 mi NW 34.5 mph 55.2 mph N/A   Partly Cloudy
10:53 AM 48.9 °F - 21.9 °F 35% 29.69 in 2.5 mi NW 51.8 mph 66.7 mph 0.00 in Rain Light Rain
11:17 AM 50.0 °F - 23.0 °F 35% 29.70 in 3.0 mi NNW 51.8 mph 63.3 mph 0.00 in   Haze
11:25 AM 50.0 °F - 23.0 °F 35% 29.69 in 2.0 mi NW 49.5 mph 65.6 mph 0.00 in   Haze
11:46 AM 50.0 °F - 23.0 °F 35% 29.70 in 3.0 mi NNW 48.3 mph 58.7 mph 0.00 in   Haze
11:53 AM 51.1 °F - 24.1 °F 35% 29.71 in 3.0 mi NNW 44.9 mph 59.8 mph 0.00 in   Haze
12:46 PM 50.0 °F - 24.8 °F 37% 29.71 in 2.5 mi NNW 43.7 mph 65.6 mph N/A   Haze
12:53 PM 50.0 °F - 24.1 °F 36% 29.73 in 4.0 mi NNW 43.7 mph 64.4 mph N/A   Haze
2:53 PM 52.0 °F - 26.1 °F 37% 29.73 in 6.0 mi NNW 49.5 mph 59.8 mph N/A   Haze
3:53 PM 53.1 °F - 26.1 °F 35% 29.75 in 7.0 mi NNW 44.9 mph 61.0 mph N/A   Overcast
4:53 PM 54.0 °F - 26.1 °F 34% 29.77 in 10.0 mi NNW 34.5 mph 55.2 mph N/A   Mostly Cloudy
5:53 PM 51.1 °F - 27.0 °F 39% 29.80 in 10.0 mi NNW 31.1 mph 44.9 mph N/A   Overcast
6:53 PM 51.1 °F - 27.0 °F 39% 29.81 in 10.0 mi NNW 29.9 mph 41.4 mph N/A   Mostly Cloudy
7:53 PM 48.9 °F - 27.0 °F 43% 29.83 in 10.0 mi NNW 27.6 mph 40.3 mph N/A   Partly Cloudy
8:53 PM 48.0 °F - 28.0 °F 46% 29.84 in 10.0 mi NNW 27.6 mph 42.6 mph N/A   Clear
9:53 PM 48.0 °F - 28.0 °F 46% 29.83 in 10.0 mi NNW 26.5 mph 40.3 mph N/A   Clear
10:53 PM 46.9 °F - 27.0 °F 46% 29.84 in 10.0 mi NNW 24.2 mph 36.8 mph N/A   Clear
11:53 PM 46.0 °F 37.6 °F 27.0 °F 47% 29.84 in 10.0 mi NNW 24.2 mph 43.7 mph N/A   Clear